When you browse on this site, cookies collect data to enhance your experience and personalize the content and advertising you see.
Visit our Privacy Policy to learn more. By continuing to use the site, you agree to this use of cookies and data.
  • In Spain
  • List of Countries
  • For 7 days
  • Water Temperature
  • Satellite Maps
  • Weather Map
  • Weather Widgets
  • user-avatar
    Login

    Hourly Weather Nagpur

    Today, 21 July, Sunday

    Time Temperature Precipitation Wind Pressure Humidity
    00:00 +31°C° 0.1 mm 2 mps 725 mmHg 68%
    01:00 +31°C° 0.1 mm 1 mps 725 mmHg 71%
    02:00 +30°C° 0.1 mm 1 mps 725 mmHg 74%
    03:00 +30°C° 0.3 mm 1 mps 725 mmHg 75%
    04:00 +29°C° 0.3 mm 1 mps 725 mmHg 76%
    05:00 +29°C° 0 mm 1 mps 725 mmHg 80%
    06:00 +30°C° 0 mm 2 mps 725 mmHg 75%
    07:00 +31°C° 0 mm 3 mps 726 mmHg 70%
    08:00 +33°C° 0 mm 3 mps 726 mmHg 65%
    09:00 +34°C° 0 mm 3 mps 726 mmHg 60%
    10:00 +35°C° 0 mm 4 mps 726 mmHg 55%
    11:00 +36°C° 0 mm 4 mps 726 mmHg 49%
    12:00 +37°C° 0 mm 4 mps 725 mmHg 49%
    13:00 +37°C° 0 mm 4 mps 725 mmHg 48%
    14:00 +37°C° 0 mm 4 mps 724 mmHg 47%
    15:00 +37°C° 0 mm 4 mps 724 mmHg 49%
    16:00 +37°C° 0 mm 3 mps 724 mmHg 50%
    17:00 +36°C° 0 mm 3 mps 723 mmHg 51%
    18:00 +36°C° 0 mm 3 mps 724 mmHg 54%
    19:00 +35°C° 0 mm 3 mps 725 mmHg 57%
    20:00 +34°C° 0 mm 3 mps 725 mmHg 60%
    21:00 +34°C° 0 mm 3 mps 725 mmHg 62%
    22:00 +33°C° 0 mm 3 mps 725 mmHg 65%
    23:00 +33°C° 0 mm 4 mps 726 mmHg 67%

    Tomorrow, 22 July, Monday

    Time Temperature Precipitation Wind Pressure Humidity
    00:00 +31°C° 0 mm 3 mps 725 mmHg 69%
    01:00 +31°C° 0 mm 3 mps 725 mmHg 72%
    02:00 +30°C° 0 mm 3 mps 725 mmHg 74%
    03:00 +30°C° 0 mm 3 mps 725 mmHg 75%
    04:00 +29°C° 0 mm 2 mps 724 mmHg 77%
    05:00 +29°C° 0 mm 2 mps 724 mmHg 78%
    06:00 +30°C° 0 mm 2 mps 725 mmHg 74%
    07:00 +31°C° 0 mm 3 mps 725 mmHg 69%
    08:00 +33°C° 0 mm 3 mps 726 mmHg 65%
    09:00 +34°C° 0 mm 3 mps 726 mmHg 60%
    10:00 +36°C° 0 mm 3 mps 726 mmHg 55%
    11:00 +37°C° 0 mm 3 mps 726 mmHg 49%
    12:00 +37°C° 0 mm 3 mps 725 mmHg 48%
    13:00 +37°C° 0 mm 2 mps 725 mmHg 47%
    14:00 +38°C° 0 mm 2 mps 724 mmHg 46%
    15:00 +38°C° 0 mm 2 mps 724 mmHg 47%
    16:00 +37°C° 0 mm 2 mps 723 mmHg 47%
    17:00 +37°C° 0 mm 2 mps 723 mmHg 48%
    18:00 +36°C° 0 mm 2 mps 723 mmHg 52%
    19:00 +36°C° 0 mm 2 mps 724 mmHg 55%
    20:00 +35°C° 0 mm 2 mps 725 mmHg 58%
    21:00 +34°C° 0 mm 2 mps 725 mmHg 60%
    22:00 +34°C° 0 mm 2 mps 724 mmHg 62%
    23:00 +32°C° 0 mm 2 mps 724 mmHg 64%

    Day after tomorrow, 23 July, Tuesday

    Time Temperature Precipitation Wind Pressure Humidity
    00:00 +32°C° 0.1 mm 2 mps 724 mmHg 67%
    01:00 +31°C° 0.1 mm 2 mps 724 mmHg 70%
    02:00 +31°C° 0.1 mm 2 mps 724 mmHg 72%
    03:00 +31°C° 0.5 mm 2 mps 724 mmHg 74%
    04:00 +30°C° 0.5 mm 2 mps 723 mmHg 75%
    05:00 +30°C° 0.5 mm 2 mps 723 mmHg 76%
    06:00 +31°C° 0.2 mm 2 mps 724 mmHg 72%
    07:00 +32°C° 0.2 mm 2 mps 725 mmHg 68%
    08:00 +34°C° 0.2 mm 3 mps 725 mmHg 63%
    09:00 +35°C° 0 mm 3 mps 725 mmHg 58%
    10:00 +36°C° 0 mm 3 mps 725 mmHg 54%
    11:00 +37°C° 0 mm 2 mps 725 mmHg 49%
    12:00 +38°C° 0 mm 2 mps 724 mmHg 47%
    13:00 +38°C° 0 mm 2 mps 723 mmHg 45%
    14:00 +39°C° 0 mm 2 mps 723 mmHg 43%
    15:00 +38°C° 0 mm 2 mps 723 mmHg 45%
    16:00 +38°C° 0 mm 2 mps 723 mmHg 47%
    17:00 +38°C° 0 mm 2 mps 722 mmHg 49%
    18:00 +37°C° 0.1 mm 2 mps 723 mmHg 52%
    19:00 +36°C° 0.1 mm 2 mps 723 mmHg 55%
    20:00 +35°C° 0.1 mm 3 mps 724 mmHg 58%
    21:00 +34°C° 0.1 mm 3 mps 724 mmHg 61%
    22:00 +34°C° 0.1 mm 3 mps 724 mmHg 63%
    23:00 +33°C° 0.1 mm 3 mps 724 mmHg 65%

    24 July, Wednesday

    Time Temperature Precipitation Wind Pressure Humidity
    00:00 +33°C° 1 mm 3 mps 724 mmHg 68%
    01:00 +32°C° 1 mm 4 mps 724 mmHg 70%
    02:00 +32°C° 1 mm 4 mps 723 mmHg 72%
    03:00 +30°C° 0.6 mm 3 mps 723 mmHg 73%
    04:00 +30°C° 0.6 mm 3 mps 723 mmHg 74%
    05:00 +30°C° 0.6 mm 3 mps 723 mmHg 75%
    06:00 +30°C° 0.7 mm 3 mps 724 mmHg 74%
    07:00 +31°C° 0.7 mm 3 mps 724 mmHg 72%
    08:00 +32°C° 0.7 mm 4 mps 725 mmHg 70%
    09:00 +33°C° 0.4 mm 4 mps 725 mmHg 66%
    10:00 +34°C° 0.4 mm 3 mps 725 mmHg 62%
    11:00 +35°C° 0.4 mm 3 mps 725 mmHg 58%
    12:00 +36°C° 0.3 mm 3 mps 724 mmHg 55%
    13:00 +36°C° 0.3 mm 2 mps 724 mmHg 53%
    14:00 +37°C° 0.3 mm 2 mps 723 mmHg 51%
    15:00 +36°C° 0.4 mm 2 mps 723 mmHg 55%
    16:00 +35°C° 0.4 mm 2 mps 722 mmHg 59%
    17:00 +34°C° 0.4 mm 3 mps 722 mmHg 63%
    18:00 +34°C° 0.2 mm 2 mps 723 mmHg 66%
    19:00 +32°C° 0.2 mm 2 mps 723 mmHg 68%
    20:00 +31°C° 0.2 mm 2 mps 724 mmHg 71%
    21:00 +31°C° 1.8 mm 2 mps 724 mmHg 74%
    22:00 +30°C° 1.8 mm 1 mps 724 mmHg 77%
    23:00 +30°C° 1.8 mm 1 mps 725 mmHg 80%

    25 July, Thursday

    Time Temperature Precipitation Wind Pressure Humidity
    00:00 +29°C° 2.4 mm 1 mps 724 mmHg 82%
    01:00 +29°C° 2.4 mm 2 mps 724 mmHg 83%
    02:00 +29°C° 2.4 mm 2 mps 724 mmHg 85%
    03:00 +28°C° 1.6 mm 2 mps 724 mmHg 87%
    04:00 +28°C° 1.6 mm 1 mps 724 mmHg 88%
    05:00 +28°C° 1.6 mm 1 mps 724 mmHg 90%
    06:00 +28°C° 0.4 mm 1 mps 724 mmHg 88%
    07:00 +28°C° 0.4 mm 1 mps 725 mmHg 86%
    08:00 +29°C° 0.4 mm 1 mps 725 mmHg 85%
    09:00 +30°C° 0.2 mm 1 mps 725 mmHg 78%
    10:00 +32°C° 0.2 mm 1 mps 725 mmHg 71%
    11:00 +33°C° 0.2 mm 1 mps 725 mmHg 64%
    12:00 +33°C° 1.2 mm 1 mps 724 mmHg 62%
    13:00 +34°C° 1.2 mm 1 mps 724 mmHg 60%
    14:00 +34°C° 1.2 mm 1 mps 723 mmHg 58%
    15:00 +34°C° 0.5 mm 1 mps 723 mmHg 61%
    16:00 +33°C° 0.5 mm 1 mps 723 mmHg 64%
    17:00 +33°C° 0.5 mm 1 mps 723 mmHg 67%
    18:00 +32°C° 0.7 mm 1 mps 723 mmHg 69%
    19:00 +31°C° 0.7 mm 1 mps 724 mmHg 72%
    20:00 +31°C° 0.7 mm 1 mps 724 mmHg 75%
    21:00 +30°C° 1.7 mm 2 mps 724 mmHg 78%
    22:00 +30°C° 1.7 mm 3 mps 724 mmHg 80%
    23:00 +29°C° 1.7 mm 4 mps 725 mmHg 83%

    26 July, Friday

    Time Temperature Precipitation Wind Pressure Humidity
    00:00 +29°C° 0.7 mm 4 mps 724 mmHg 84%
    01:00 +28°C° 0.7 mm 4 mps 724 mmHg 86%
    02:00 +28°C° 0.7 mm 4 mps 723 mmHg 87%
    03:00 +28°C° 1.1 mm 4 mps 723 mmHg 86%
    04:00 +28°C° 1.1 mm 4 mps 724 mmHg 86%
    05:00 +28°C° 1.1 mm 4 mps 724 mmHg 85%
    06:00 +28°C° 1.8 mm 3 mps 724 mmHg 86%
    07:00 +28°C° 1.8 mm 3 mps 725 mmHg 86%
    08:00 +28°C° 1.8 mm 2 mps 725 mmHg 87%
    09:00 +28°C° 1.9 mm 3 mps 725 mmHg 88%
    10:00 +28°C° 1.9 mm 3 mps 725 mmHg 89%
    11:00 +27°C° 1.9 mm 3 mps 725 mmHg 90%
    12:00 +28°C° 0.3 mm 4 mps 724 mmHg 89%
    13:00 +28°C° 0.3 mm 4 mps 724 mmHg 87%
    14:00 +28°C° 0.3 mm 5 mps 723 mmHg 86%
    15:00 +28°C° 0.3 mm 5 mps 723 mmHg 86%
    16:00 +28°C° 0.3 mm 5 mps 723 mmHg 86%
    17:00 +28°C° 0.3 mm 5 mps 723 mmHg 86%
    18:00 +28°C° 0.1 mm 4 mps 724 mmHg 87%
    19:00 +27°C° 0.1 mm 4 mps 724 mmHg 87%
    20:00 +27°C° 0.1 mm 4 mps 725 mmHg 87%
    21:00 +27°C° 0.1 mm 4 mps 725 mmHg 88%
    22:00 +26°C° 0.1 mm 4 mps 725 mmHg 88%
    23:00 +26°C° 0.1 mm 4 mps 725 mmHg 89%
    Show more